Location: Amsterdam
(30.7274°N, 84.4357°W)
Time: 02:26:22
(UTC+00:00)

Courier 1B Rocket - Pass Details

Date: 11 February 2026
Orbit: 920 x 1201 km, 28.2° (Epoch: 13 March)

Event Time Altitude Azimuth Distance (km) Brightness Sun altitude
Rises 09:06:46 0° 273° (W) 3,981 - -42.4°
Reaches altitude 10° 09:09:52 10° 263° (W) 3,055 - -41.7°
Maximum altitude 09:16:21 31° 205° (SSW) 1,952 - -40.3°
Exits shadow 09:20:45 18° 158° (SSE) 2,545 7.2 -39.4°
Drops below altitude 10° 09:22:59 10° 147° (SSE) 3,122 7.8 -38.9°
Sets 09:26:12 0° 137° (SE) 4,082 8.7 -38.2°
